Wetbulb
59.93 59.96 62.04 63.37 63.10 61.04 59.53 58.18 56.16 53.10 53.60 52.36 50.23 49.04 48.12 47.91 48.29 48.99 50.08 50.00 50.32 50.41 49.68 49.10 48.56 48.39 47.52 47.22 47.04 45.29 45.54 45.46 45.56 46.01 45.24 45.08 44.26 43.37 42.51 42.55 42.60 42.95 44.02
59.75 60.34 61.10 61.40 61.20 60.37 59.29 57.22 56.45 53.70 54.21 53.05 50.34 49.27 48.11 47.41 47.51 47.99 48.69 49.42 49.72 49.75 49.21 48.06 47.47 46.82 46.31 45.61 44.95 44.02 43.40 43.47 43.95 43.36 43.05 41.21 42.33 42.05 41.10 40.55 41.09 39.73 41.72
58.22 58.65 59.20 60.33 61.20 59.77 57.32 56.71 55.03 54.17 53.64 52.61 50.30 48.43 47.38 46.85 46.17 46.12 46.99 48.16 49.19 48.96 48.57 47.81 46.77 45.89 45.27 44.18 43.45 43.40 42.72 41.67 42.16 41.82 42.67 39.44 38.19 41.02 41.75 38.26 38.53 38.19 38.61
58.12 58.24 58.76 57.39 58.36 58.84 58.15 56.79 54.91 53.99 53.45 52.44 50.07 48.43 47.02 45.32 45.01 45.61 46.26 46.89 48.42 48.25 47.85 47.00 46.07 45.20 44.67 44.03 43.64 43.92 42.37 42.11 40.49 40.77 41.38 39.19 40.42 38.04 36.67 38.33 37.04 38.58 38.70
57.34 57.25 57.04 57.02 57.84 56.41 55.18 54.89 54.50 54.17 54.25 52.99 51.36 48.26 46.43 44.92 45.39 45.79 45.54 45.96 46.53 46.88 46.78 45.79 44.93 43.94 43.64 42.49 41.51 40.80 40.74 40.12 39.33 39.68 38.35 36.02 35.88 35.47 33.85 29.06 32.12 35.52 36.85
56.06 56.97 57.54 57.59 56.32 54.71 54.44 54.59 54.69 54.34 53.38 52.84 51.40 48.91 45.69 45.17 44.92 44.85 44.61 44.82 44.99 44.95 45.10 44.82 43.84 43.57 42.68 41.50 40.85 40.37 39.60 39.15 39.15 38.88 38.16 36.88 34.17 33.72 32.28 30.57 31.71 32.35 34.53
55.84 56.55 56.70 55.17 54.12 52.12 53.33 54.24 54.26 52.47 51.57 51.95 49.79 48.52 47.20 45.86 45.19 45.21 45.16 44.54 43.71 42.85 42.97 43.31 43.12 42.56 41.91 41.69 40.93 39.78 39.24 38.24 37.95 37.62 37.60 38.08 37.56 37.62 36.31 34.08 32.24 31.01 33.62
55.29 56.37 56.61 55.67 53.54 52.58 52.45 54.04 53.40 51.78 50.61 50.11 48.56 47.76 46.03 45.73 45.63 45.35 44.99 44.40 43.30 42.83 43.15 43.75 43.70 43.05 42.50 41.74 40.92 40.16 39.13 38.55 37.91 36.57 37.07 37.15 37.04 37.14 36.45 34.88 31.77 28.94 30.31
54.40 55.69 56.01 55.13 53.99 53.33 52.76 53.29 52.94 52.36 51.17 50.42 48.51 46.55 45.53 44.94 45.10 45.18 44.35 43.62 43.08 43.57 43.18 43.29 42.80 42.55 41.82 40.96 40.24 39.07 38.43 38.27 38.26 37.05 36.32 35.94 35.64 35.70 35.45 35.10 34.42 30.78 25.92
54.53 55.40 55.12 54.82 54.37 54.55 54.33 54.11 53.54 52.27 51.04 48.49 48.26 45.98 44.47 45.12 45.21 44.92 43.93 43.98 42.74 42.87 42.70 41.94 41.93 41.77 41.04 40.40 39.72 39.16 38.57 38.35 37.64 36.57 35.51 34.72 34.49 33.79 33.73 33.36 32.90 32.55 30.62
53.65 54.34 54.92 54.94 53.98 53.90 52.52 51.90 51.24 49.27 47.52 47.06 47.40 44.83 44.03 44.42 44.70 44.37 44.08 43.49 42.57 42.45 42.89 42.32 41.57 41.20 40.69 40.44 39.95 39.49 39.19 37.87 36.84 35.63 34.81 33.59 33.27 31.89 31.37 31.55 31.57 31.10 31.24
49.07 51.50 52.57 52.40 52.63 51.13 50.36 48.97 48.66 47.32 46.75 46.51 45.12 45.20 44.37 44.56 44.25 43.86 43.81 43.40 42.82 42.20 42.34 42.03 41.54 41.73 40.79 40.11 39.74 39.54 38.45 37.02 35.81 35.38 34.46 32.97 33.27 30.30 30.69 30.15 30.38 30.14 30.55
44.42 48.80 49.08 50.28 51.22 50.23 48.15 48.87 47.90 47.50 46.42 44.57 43.83 43.21 43.20 43.81 43.35 43.15 43.39 42.71 41.95 41.13 41.61 41.22 40.92 40.67 40.33 39.63 39.32 39.21 38.43 36.85 35.71 34.40 33.01 31.30 30.24 29.37 29.87 30.36 29.95 29.37 31.48
42.98 46.42 46.75 47.80 49.14 47.17 47.07 46.80 46.43 45.17 44.73 43.94 43.06 42.46 42.36 42.97 42.94 42.89 42.64 41.68 41.68 40.32 39.76 39.93 40.06 40.09 39.49 39.48 39.68 39.12 37.61 36.71 35.71 35.12 33.26 31.28 30.34 29.65 29.95 30.24 29.38 29.43 28.58
36.78 42.35 43.69 44.27 46.01 44.77 45.57 45.53 45.50 46.39 46.21 44.48 42.72 42.10 42.16 42.55 42.52 42.37 41.54 41.03 40.68 39.91 39.30 38.18 37.54 37.77 38.40 38.74 37.88 37.87 37.16 35.72 34.79 34.49 33.27 32.67 34.03 34.89 33.53 30.80 29.26 28.29 27.91
35.77 36.59 41.56 43.01 43.15 43.74 44.07 45.29 45.58 46.26 46.39 44.18 42.59 42.18 42.09 42.09 41.91 41.62 40.36 40.06 38.75 37.88 36.94 36.01 36.09 34.97 36.29 37.14 37.93 37.05 36.05 35.73 34.62 32.14 30.53 30.99 32.53 33.25 34.43 34.22 33.83 31.55 28.20
35.24 35.54 37.23 41.03 43.10 43.83 44.97 44.79 45.02 45.54 44.83 44.05 43.02 42.22 42.26 41.88 41.39 41.47 40.36 38.53 37.33 36.02 34.68 33.56 33.93 33.41 33.42 36.17 37.50 36.90 35.52 34.90 33.67 32.15 30.50 30.46 32.16 30.87 29.86 31.86 31.89 31.32 31.82
35.47 35.61 36.80 38.35 40.19 44.47 44.92 45.13 45.06 44.13 43.99 43.39 42.88 42.82 42.40 41.51 41.08 40.54 39.38 38.28 36.08 34.64 32.78 31.57 32.13 32.56 33.31 35.58 36.39 36.06 35.00 33.48 32.44 31.23 28.95 28.59 29.33 30.62 29.89 28.87 28.15 27.57 27.31
36.49 36.80 37.00 37.85 40.88 42.92 45.43 44.39 43.69 43.63 43.71 43.03 42.66 42.99 42.65 41.34 40.72 39.87 38.58 37.76 35.74 33.26 31.61 31.17 30.57 31.70 31.97 35.16 35.18 35.36 33.88 32.57 30.61 30.32 29.69 29.53 29.51 33.77 32.94 28.83 26.96 25.32 25.32
36.11 36.95 37.94 37.87 42.97 46.71 45.86 43.59 42.91 42.77 42.41 43.01 43.14 43.31 43.07 41.75 40.57 39.93 38.84 37.82 36.20 34.37 32.65 30.96 31.45 33.02 31.69 34.62 35.64 35.27 33.51 30.18 29.87 29.26 30.27 32.23 31.09 33.43 31.49 27.24 25.60 22.97 22.95
35.36 36.70 37.91 37.34 37.41 43.99 45.44 43.50 43.52 42.30 43.97 44.23 43.50 43.01 42.71 41.64 41.17 39.69 39.41 37.87 36.07 34.87 32.26 31.11 30.68 31.62 32.23 32.80 36.00 36.12 33.05 31.42 29.98 28.47 28.50 29.48 33.52 33.06 31.79 29.48 26.51 25.33 24.37
34.64 35.62 35.73 37.26 38.17 40.79 43.90 42.65 42.35 43.64 44.69 43.82 43.46 43.06 42.23 41.91 41.11 39.41 38.85 38.14 36.49 34.48 32.25 29.84 28.84 29.60 30.31 33.20 35.73 35.62 34.26 33.35 30.66 28.33 28.00 28.07 32.92 32.37 30.56 27.97 28.14 26.96 24.80
33.66 35.75 35.51 37.00 38.51 38.26 38.45 43.54 43.59 44.13 43.76 42.94 42.48 42.12 41.76 41.67 40.48 38.87 37.77 37.33 37.03 34.53 32.70 30.30 28.46 27.44 28.74 30.33 34.40 34.71 34.12 33.01 29.61 28.63 29.48 32.29 32.14 30.79 28.00 28.46 26.90 24.27 22.77
34.40 34.29 34.55 34.85 36.50 38.94 38.55 37.92 45.25 44.72 42.38 41.89 41.71 41.71 40.30 39.70 39.63 39.58 38.96 37.75 36.97 35.93 34.00 31.96 28.74 27.17 27.65 29.00 30.62 32.91 32.83 29.69 29.03 29.56 29.54 27.21 26.12 25.35 24.55 24.46 24.13 24.57 22.20
35.76 35.23 33.36 33.72 35.29 37.60 38.50 39.65 43.26 44.24 41.58 41.44 41.33 40.85 40.49 38.95 39.18 39.36 38.84 38.26 38.95 37.95 35.80 34.77 31.71 28.09 27.21 29.32 31.58 31.97 30.00 29.45 29.15 27.46 26.12 24.80 24.72 24.17 23.56 23.26 23.06 22.86 21.93
33.36 35.32 34.63 34.02 34.57 35.62 36.67 38.90 40.37 44.16 42.61 41.12 40.27 40.09 39.81 39.01 39.26 38.31 34.56 34.83 36.79 35.57 35.79 35.40 34.48 32.02 31.21 31.73 32.36 32.39 32.04 31.53 28.75 26.90 25.14 22.87 23.34 23.07 22.86 22.48 21.93 21.80 20.54
MSLP
1009.29 1010.04 1010.69 1011.78 1012.92 1013.87 1014.80 1015.35 1015.92 1016.42 1016.69 1017.48 1018.33 1019.01 1019.28 1019.44 1019.51 1019.47 1019.41 1019.36 1019.41 1019.63 1019.80 1020.25 1020.56 1020.65 1020.76 1021.11 1021.25 1021.60 1021.99 1022.63 1022.91 1023.00 1024.42 1024.93 1025.14 1025.16 1025.23 1025.38 1025.32 1025.17 1025.20
1009.85 1010.60 1011.28 1012.04 1012.75 1013.69 1014.71 1015.44 1015.78 1016.29 1016.51 1016.98 1017.77 1018.41 1019.21 1019.74 1019.76 1019.76 1019.76 1019.75 1019.70 1019.86 1020.11 1020.38 1020.75 1020.99 1021.18 1021.38 1021.58 1021.77 1022.63 1023.14 1023.19 1023.59 1024.18 1025.44 1026.05 1026.16 1026.28 1026.15 1025.96 1026.04 1025.85
1008.98 1010.25 1011.17 1011.95 1012.85 1013.61 1014.17 1014.70 1015.34 1015.97 1016.48 1016.97 1017.67 1018.60 1019.34 1019.82 1020.14 1020.24 1020.22 1020.15 1020.03 1020.20 1020.42 1020.74 1021.00 1021.39 1021.52 1021.90 1022.07 1022.20 1022.51 1023.29 1023.83 1023.64 1023.84 1025.07 1025.58 1026.34 1026.81 1026.83 1026.70 1026.71 1026.61
1009.91 1010.59 1011.27 1011.96 1012.19 1012.92 1014.00 1014.68 1015.23 1015.84 1016.27 1016.63 1017.17 1017.84 1018.58 1019.41 1019.88 1020.24 1020.52 1020.57 1020.44 1020.55 1020.81 1021.14 1021.42 1021.79 1021.97 1022.38 1022.52 1022.51 1022.76 1023.14 1023.93 1024.13 1024.48 1024.52 1024.86 1025.91 1027.32 1027.36 1027.24 1027.13 1027.06
1009.67 1010.11 1010.66 1011.10 1011.70 1012.63 1013.18 1014.17 1014.89 1015.51 1015.93 1016.34 1016.74 1017.56 1018.59 1019.23 1019.75 1020.29 1020.80 1020.99 1021.05 1021.02 1021.33 1021.57 1021.92 1022.30 1022.50 1022.83 1023.07 1023.29 1023.35 1023.54 1024.09 1024.34 1025.06 1025.26 1025.52 1025.63 1026.18 1027.63 1027.72 1027.53 1027.41
1008.97 1009.73 1010.31 1011.51 1012.35 1012.96 1013.44 1013.93 1014.44 1014.98 1015.45 1015.97 1016.78 1017.34 1018.27 1019.21 1019.99 1020.61 1020.99 1021.44 1021.49 1021.64 1021.80 1021.98 1022.33 1022.82 1023.09 1023.30 1023.39 1023.70 1023.88 1024.26 1024.64 1025.06 1025.29 1025.47 1025.83 1026.45 1026.50 1027.61 1028.30 1028.30 1027.88
1008.25 1009.29 1009.95 1010.63 1011.55 1012.43 1013.14 1013.75 1014.39 1014.90 1015.34 1015.65 1016.52 1017.11 1018.07 1019.00 1019.81 1020.45 1020.92 1021.54 1021.96 1022.16 1022.43 1022.45 1022.89 1023.31 1023.69 1023.86 1024.01 1024.17 1024.46 1024.91 1025.20 1025.75 1026.14 1026.19 1026.45 1026.59 1026.91 1027.23 1028.27 1028.44 1028.20
1007.11 1007.83 1008.14 1009.16 1010.19 1011.01 1012.17 1012.95 1013.39 1014.00 1014.56 1015.28 1016.11 1016.98 1017.87 1018.92 1019.76 1020.36 1020.87 1021.46 1022.01 1022.37 1022.56 1022.77 1023.16 1023.57 1024.07 1024.37 1024.66 1024.87 1024.93 1025.42 1025.89 1026.28 1026.60 1026.91 1027.18 1027.22 1027.45 1027.80 1028.19 1028.91 1029.00
1007.72 1008.18 1008.41 1008.92 1009.55 1010.52 1010.78 1011.30 1012.44 1013.25 1013.77 1014.32 1015.78 1016.80 1017.59 1018.61 1019.60 1020.34 1020.99 1021.48 1021.93 1022.36 1022.88 1023.11 1023.62 1024.04 1024.47 1024.64 1024.99 1025.43 1025.61 1026.01 1026.66 1027.00 1027.40 1027.49 1027.78 1027.83 1027.95 1028.11 1028.38 1028.73 1029.21
1006.39 1006.87 1007.75 1008.36 1008.85 1009.73 1011.02 1011.87 1012.40 1013.11 1013.74 1014.87 1015.47 1016.56 1017.53 1018.40 1019.38 1020.25 1020.81 1021.52 1021.96 1022.33 1022.86 1023.34 1023.96 1024.37 1024.78 1025.04 1025.20 1025.93 1026.23 1026.49 1027.01 1027.65 1028.03 1028.06 1028.27 1028.21 1028.36 1028.47 1028.83 1029.03 1029.18
1006.11 1006.10 1006.54 1007.74 1008.71 1009.89 1011.08 1011.68 1012.34 1012.56 1013.48 1014.58 1015.50 1016.48 1017.19 1017.99 1019.03 1019.96 1020.77 1021.37 1021.83 1022.41 1022.91 1023.37 1024.09 1024.64 1025.04 1025.37 1025.63 1026.33 1026.57 1027.12 1027.70 1027.88 1028.25 1028.78 1028.73 1028.85 1028.82 1028.90 1029.00 1029.27 1029.32
1006.18 1005.97 1006.16 1007.08 1008.06 1008.91 1009.99 1010.63 1011.62 1012.43 1012.99 1014.03 1015.17 1015.98 1017.02 1017.99 1018.75 1019.66 1020.69 1021.14 1021.82 1022.34 1022.77 1023.49 1024.21 1024.85 1025.24 1025.58 1026.12 1026.54 1027.02 1027.62 1027.98 1028.48 1028.68 1029.15 1029.37 1029.48 1029.46 1029.45 1029.46 1029.62 1029.49
1006.51 1006.10 1006.55 1006.86 1007.45 1008.51 1009.51 1010.53 1011.63 1012.72 1013.61 1014.19 1015.24 1016.43 1017.06 1017.73 1018.55 1019.31 1020.13 1021.19 1021.86 1022.47 1023.03 1023.66 1024.34 1025.03 1025.33 1025.83 1026.32 1026.79 1027.36 1027.89 1028.35 1028.83 1029.14 1029.65 1029.66 1029.71 1029.86 1029.89 1029.98 1029.94 1029.78
1007.49 1005.90 1006.35 1007.05 1007.77 1008.52 1009.36 1010.28 1011.32 1012.12 1013.20 1014.35 1015.08 1016.16 1017.03 1017.66 1018.40 1019.38 1020.01 1020.93 1021.70 1022.51 1023.25 1023.81 1024.32 1024.99 1025.35 1025.87 1026.37 1026.97 1027.68 1028.28 1028.78 1029.25 1029.54 1029.72 1029.76 1029.84 1029.98 1029.86 1029.93 1029.84 1029.90
1009.66 1008.62 1008.31 1008.17 1008.05 1008.76 1009.28 1009.98 1011.10 1012.23 1013.00 1014.06 1014.85 1015.76 1016.80 1017.86 1018.56 1019.28 1020.16 1020.81 1021.54 1022.47 1023.19 1023.92 1024.61 1025.06 1025.44 1025.79 1026.60 1027.17 1027.84 1028.57 1029.20 1029.62 1029.84 1029.80 1029.73 1029.79 1029.84 1029.82 1029.82 1029.69 1029.84
1011.66 1010.91 1010.08 1009.73 1009.96 1010.17 1009.60 1010.26 1011.04 1011.58 1012.54 1013.72 1014.54 1015.45 1016.48 1017.47 1018.40 1019.27 1019.91 1021.01 1021.67 1022.38 1023.25 1024.05 1024.76 1025.30 1025.71 1025.92 1026.50 1027.12 1027.97 1028.73 1029.32 1029.78 1030.05 1030.16 1030.08 1030.15 1029.82 1029.83 1029.73 1029.78 1029.77
1012.97 1012.16 1011.42 1010.74 1010.27 1010.11 1010.08 1010.11 1010.51 1011.37 1012.18 1013.30 1014.53 1015.58 1015.87 1016.80 1018.14 1019.03 1019.74 1020.66 1021.77 1022.55 1023.31 1023.99 1024.73 1025.49 1025.96 1026.09 1026.49 1027.13 1027.82 1028.56 1029.20 1029.66 1029.98 1030.09 1030.25 1030.46 1030.27 1030.10 1029.97 1029.97 1029.83
1013.80 1012.93 1011.87 1010.76 1010.52 1009.99 1010.13 1010.29 1010.56 1010.87 1011.90 1013.07 1013.21 1015.54 1016.23 1016.34 1017.64 1018.92 1019.72 1020.56 1021.70 1022.61 1023.42 1024.09 1024.71 1025.33 1025.98 1026.17 1026.61 1027.15 1027.90 1028.50 1029.21 1029.55 1030.01 1030.17 1030.46 1030.35 1030.52 1030.38 1030.20 1030.33 1030.14
1014.33 1013.74 1012.66 1010.83 1008.77 1008.75 1009.24 1010.16 1010.91 1011.19 1011.26 1011.82 1013.13 1014.44 1015.47 1016.20 1016.96 1018.14 1019.47 1020.22 1021.37 1022.71 1023.46 1024.01 1024.76 1025.29 1025.84 1026.11 1026.63 1027.13 1027.92 1028.65 1029.27 1029.65 1029.93 1030.17 1030.34 1030.24 1030.30 1030.23 1030.19 1030.30 1030.23
1014.23 1013.60 1012.24 1010.03 1007.73 1006.77 1007.42 1008.60 1009.38 1010.74 1010.96 1011.41 1012.12 1013.01 1014.59 1015.78 1016.41 1017.81 1018.75 1019.71 1020.87 1022.14 1023.33 1024.18 1024.66 1025.09 1025.57 1025.95 1026.37 1026.82 1027.71 1028.66 1029.22 1029.66 1029.85 1029.95 1030.07 1030.28 1030.33 1030.13 1030.25 1030.26 1030.45
1014.29 1013.50 1012.05 1010.58 1009.35 1007.82 1007.97 1008.55 1009.49 1009.78 1010.68 1011.76 1012.48 1013.41 1014.24 1015.13 1016.11 1017.58 1018.72 1019.32 1020.41 1021.83 1022.92 1023.96 1024.64 1025.00 1025.36 1025.88 1026.10 1026.55 1027.32 1028.19 1028.98 1029.36 1029.88 1029.83 1029.72 1030.22 1030.19 1030.12 1030.30 1030.43 1030.55
1013.91 1013.29 1012.58 1011.61 1010.15 1010.05 1009.22 1009.42 1009.41 1010.00 1011.00 1011.90 1012.42 1013.06 1013.70 1014.83 1015.98 1017.18 1018.42 1019.25 1020.23 1021.51 1022.65 1023.61 1024.59 1024.96 1025.33 1025.60 1025.86 1026.31 1026.77 1027.73 1028.39 1029.15 1029.52 1029.72 1029.65 1030.12 1030.22 1030.37 1030.41 1030.52 1030.68
1014.16 1013.53 1013.33 1012.28 1011.60 1011.33 1011.19 1010.21 1009.94 1010.14 1010.40 1011.10 1012.25 1012.70 1013.50 1014.63 1015.61 1016.49 1017.66 1018.68 1019.84 1020.87 1022.16 1023.13 1024.08 1024.74 1025.14 1025.68 1025.77 1026.15 1026.74 1027.36 1028.21 1028.83 1029.17 1029.27 1029.62 1030.14 1030.48 1030.45 1030.61 1030.81 1030.85
1014.03 1013.67 1013.31 1012.98 1012.30 1011.90 1011.77 1011.04 1009.99 1009.97 1010.34 1010.92 1011.64 1012.46 1013.34 1014.24 1015.13 1016.14 1016.88 1017.72 1018.86 1020.01 1021.21 1022.42 1023.45 1024.25 1024.86 1025.44 1025.92 1026.22 1026.85 1027.49 1028.15 1028.69 1029.22 1029.54 1030.08 1030.57 1030.84 1030.88 1030.94 1030.76 1031.05
1013.67 1013.62 1013.41 1013.30 1012.76 1012.15 1011.73 1011.15 1009.80 1009.54 1010.09 1010.53 1011.25 1011.98 1012.64 1013.65 1014.46 1015.27 1015.89 1016.59 1017.76 1018.42 1019.51 1020.73 1022.06 1023.06 1023.82 1024.41 1025.09 1025.58 1026.40 1027.03 1027.79 1028.62 1029.33 1029.92 1030.28 1030.65 1030.81 1031.00 1031.01 1031.01 1031.10
1013.28 1013.02 1012.88 1012.68 1012.72 1012.04 1011.54 1011.16 1010.16 1009.13 1009.47 1010.00 1010.68 1011.43 1012.08 1012.98 1013.67 1014.71 1016.01 1016.69 1017.52 1018.48 1019.26 1020.13 1021.05 1022.34 1022.92 1023.81 1024.73 1025.49 1026.21 1026.77 1027.58 1028.25 1028.91 1029.56 1029.94 1030.20 1030.44 1030.68 1030.82 1031.01 1031.11
Wind_Speed
8 8 13 13 13 11 13 13 13 10 10 6 5 3 4 2 3 4 5 5 5 6 6 5 5 4 4 4 3 4 7 6 3 8 8 7 8 7 6 6 6 8 8
12 13 13 13 15 15 13 11 12 12 8 7 3 4 4 2 3 2 4 5 6 6 6 6 5 5 5 6 5 4 3 3 4 4 3 3 1 6 6 4 6 7 6
19 16 16 16 15 16 16 15 14 12 7 8 7 5 5 3 3 2 3 3 6 6 6 6 6 5 4 4 3 4 5 4 4 6 3 3 3 4 2 5 5 6 5
12 14 17 15 18 17 13 12 12 11 9 11 8 12 5 5 3 3 3 3 5 6 6 6 6 6 4 6 4 3 3 4 4 3 6 6 3 4 3 2 3 4 5
16 20 21 21 18 14 14 12 12 12 11 9 10 8 7 3 4 4 6 5 5 6 6 6 7 6 4 5 6 6 6 3 4 3 2 5 5 5 4 3 3 3 3
18 18 17 13 11 9 11 12 14 12 11 11 10 11 12 10 8 6 5 4 3 4 6 7 6 6 6 6 6 6 8 7 7 6 5 3 3 2 4 4 0 1 3
18 17 19 17 15 14 13 12 13 12 11 13 12 11 11 11 11 10 7 7 4 3 5 6 6 5 5 6 6 7 8 6 8 7 6 6 5 2 3 3 2 3 3
20 23 22 19 18 19 18 17 18 16 15 14 12 11 12 8 7 6 7 5 4 4 5 7 7 7 7 7 7 7 7 8 8 9 7 6 5 5 3 3 3 2 2
15 18 18 18 19 19 23 23 19 16 16 16 12 11 11 11 9 9 6 4 6 5 6 7 7 7 7 7 8 7 9 9 8 7 6 6 4 4 4 4 3 2 2
18 19 17 19 18 16 12 13 13 13 13 11 12 11 11 10 10 10 9 8 6 6 8 8 7 7 7 7 9 8 6 9 6 5 7 6 4 5 4 4 4 3 2
15 16 15 14 15 13 11 11 12 14 13 12 12 12 11 12 12 10 10 10 8 9 9 9 8 8 8 7 8 7 7 8 7 6 7 6 5 4 4 3 3 3 2
9 10 14 15 15 16 15 16 14 14 14 13 12 14 14 13 13 12 10 10 10 8 10 9 8 8 8 7 8 8 7 7 7 6 6 6 5 5 4 3 4 3 2
12 8 9 15 16 15 14 14 13 11 10 12 12 11 12 13 13 13 13 10 11 9 9 9 9 8 7 7 6 8 7 6 6 6 6 5 5 5 3 3 3 2 2
24 7 9 10 12 12 14 14 13 13 13 12 13 13 12 13 13 12 13 12 11 10 9 8 8 8 7 7 7 7 7 7 7 6 5 5 5 5 4 4 3 3 2
23 19 7 1 9 10 12 14 13 13 14 14 14 13 12 11 12 13 12 12 12 10 9 9 7 7 7 6 7 7 8 9 8 6 5 5 7 8 5 2 3 4 3
19 18 16 5 2 5 12 14 14 15 16 15 14 13 13 13 13 13 13 12 11 11 10 9 9 7 5 10 11 9 8 9 8 7 5 4 7 6 7 7 7 5 3
17 17 14 12 5 8 13 15 16 14 15 15 13 13 15 15 13 14 14 13 13 11 10 9 9 7 6 11 11 13 7 8 7 6 5 5 3 3 4 4 6 7 6
16 18 16 14 12 8 10 12 14 17 16 15 17 15 14 16 15 14 14 13 11 11 10 9 8 8 6 11 11 13 8 7 6 6 6 6 5 3 3 3 4 3 3
13 14 16 16 18 15 14 12 12 14 17 20 18 17 16 16 17 17 15 13 12 8 8 8 9 9 7 12 12 11 8 8 7 5 6 5 5 4 4 4 4 3 4
13 17 18 18 21 15 20 18 18 16 16 16 17 18 16 16 17 16 16 13 12 11 8 8 8 10 9 12 13 12 8 8 6 5 5 7 5 6 5 5 4 5 4
15 18 18 18 20 6 12 16 15 18 14 13 14 16 17 16 16 15 12 13 13 11 10 9 6 7 8 8 14 16 9 8 6 5 4 3 9 8 8 8 5 4 3
15 17 18 17 18 20 3 8 13 12 13 13 15 15 16 14 13 17 13 14 13 12 11 10 6 4 5 8 13 17 13 13 8 7 4 4 11 9 9 6 9 8 4
10 12 15 17 16 15 18 7 6 12 14 16 16 16 16 15 15 16 15 13 13 11 10 9 8 6 4 4 12 15 17 14 6 5 7 11 12 11 7 9 8 4 3
6 9 12 15 15 14 15 15 9 11 13 16 16 15 16 15 15 12 13 12 12 11 11 10 9 7 6 5 5 7 9 10 8 8 6 6 6 5 4 4 4 3 3
5 5 6 11 14 14 16 16 12 13 14 14 14 14 13 15 14 13 13 13 13 14 14 12 11 12 10 9 11 12 9 8 8 8 5 4 3 3 3 2 3 3 3
9 6 6 7 13 13 14 18 19 13 16 14 13 13 12 12 12 12 6 5 11 14 12 16 13 7 10 18 16 15 15 15 16 6 6 4 4 4 4 3 3 2 3
Wind_Direction
166 152 151 149 141 142 147 152 146 149 138 133 119 94 114 97 71 64 80 92 98 98 105 98 85 75 88 109 96 83 96 76 75 102 80 63 56 54 50 52 50 48 50
154 154 154 156 163 159 161 159 158 160 157 143 127 125 139 98 107 98 85 90 96 100 95 100 91 79 91 79 64 73 110 82 21 118 116 135 73 53 41 32 56 40 38
168 164 167 172 168 170 170 168 167 165 153 133 119 93 86 78 77 62 77 79 99 93 98 93 93 83 81 86 80 90 99 122 33 54 127 118 165 129 23 30 40 40 38
171 171 175 178 179 178 168 165 161 163 159 155 141 157 155 154 163 136 120 97 97 97 97 95 91 88 83 82 78 61 85 101 119 71 35 53 93 148 136 9 17 30 38
180 180 185 186 184 169 168 162 167 171 166 165 157 151 137 118 119 118 116 105 89 93 92 96 93 87 82 81 81 71 72 64 98 91 115 51 55 40 127 125 346 357 9
184 192 189 174 181 175 171 174 175 179 170 164 163 159 147 146 142 142 127 123 107 99 101 99 95 90 89 87 89 82 75 76 74 71 66 94 100 16 79 101 136 245 290
188 189 186 184 181 180 182 177 182 181 171 167 165 156 152 155 154 153 145 142 131 112 120 108 101 94 90 86 84 88 84 73 86 83 75 64 62 75 58 82 91 46 328
195 196 199 189 182 178 182 183 183 178 173 163 157 152 148 150 151 150 146 138 133 134 132 112 109 107 101 97 92 91 90 85 79 76 75 81 62 55 42 103 133 103 354
206 208 204 200 187 186 187 185 181 178 172 163 155 154 148 148 154 142 128 133 126 128 117 111 112 106 105 104 103 99 99 90 88 84 81 82 69 67 68 65 51 133 67
208 211 204 199 199 196 189 182 182 176 166 156 159 154 148 144 143 144 139 144 136 124 130 119 117 118 114 112 109 106 95 103 95 92 90 84 78 73 62 72 63 48 110
226 214 204 188 184 175 179 173 175 162 162 159 162 154 151 146 145 145 147 148 134 139 137 131 130 130 126 120 111 113 107 100 102 97 96 84 80 79 73 63 68 64 76
272 206 194 171 177 173 169 172 168 169 167 161 159 159 150 149 147 145 150 149 144 137 139 136 131 134 131 124 128 127 116 120 114 103 102 101 99 79 76 68 66 57 53
299 217 181 184 179 175 170 169 168 167 157 147 145 149 150 152 152 151 147 147 141 133 134 131 135 139 135 128 120 125 125 113 108 108 103 112 106 96 94 82 77 56 24
347 227 172 172 173 168 168 164 162 151 148 149 149 150 156 158 153 150 147 145 143 136 134 133 132 137 134 133 132 127 120 112 104 100 97 97 92 108 108 81 68 63 34
2 356 358 259 165 161 160 154 152 162 162 160 154 155 149 149 147 146 147 142 142 139 136 128 125 129 135 140 135 129 122 119 113 108 103 91 99 97 94 91 53 47 31
355 355 354 359 250 187 164 161 164 169 167 166 160 151 147 147 153 152 147 144 139 139 138 139 141 134 133 132 135 130 130 134 135 126 105 90 83 80 77 68 67 57 16
352 346 344 336 251 204 184 181 172 166 168 163 153 163 159 154 156 154 150 148 150 146 149 143 141 141 136 138 136 135 135 141 144 141 138 115 98 94 78 63 61 36 22
345 341 332 323 304 230 210 187 182 172 171 170 155 170 170 156 154 155 154 150 151 155 155 149 150 144 154 151 146 135 128 121 129 133 134 128 142 133 146 135 92 55 16
336 327 321 311 283 230 192 187 188 185 172 170 169 171 171 163 156 158 160 155 150 148 157 155 151 156 158 165 154 131 129 126 125 129 132 137 133 139 138 112 86 50 32
342 336 330 339 351 221 182 177 179 187 190 185 176 167 167 167 162 162 162 156 154 154 153 154 165 166 164 176 166 143 137 135 136 131 139 150 137 131 114 91 75 54 0
346 345 343 356 353 313 177 184 186 196 185 176 169 168 168 164 162 157 165 156 155 150 151 157 156 158 169 173 167 153 149 151 151 149 161 157 132 122 97 83 68 58 358
353 357 350 347 2 360 248 202 197 173 172 174 174 170 164 164 162 160 158 158 155 156 155 149 149 159 167 168 172 161 152 158 151 165 164 158 133 121 101 84 76 59 30
351 358 350 344 350 358 356 252 205 176 171 172 179 171 165 168 166 162 162 159 163 159 161 164 166 170 163 164 162 155 151 150 136 147 161 147 128 115 91 85 76 58 35
349 348 348 337 338 343 338 346 225 187 177 176 173 170 169 167 168 170 169 165 169 168 166 169 171 167 159 163 159 149 150 138 133 147 137 126 118 113 116 91 57 60 47
286 309 340 324 321 334 330 324 287 185 185 178 174 175 172 173 172 177 178 174 182 177 174 179 170 168 178 183 172 161 160 157 156 131 125 126 125 140 141 122 90 63 41
283 255 278 315 311 325 330 321 334 195 185 182 178 180 176 176 173 169 148 76 164 164 156 154 165 173 151 157 164 163 158 155 150 145 159 161 166 166 163 161 136 86 48